WICK current weather conditions

sailwx.info

Wind from 240 at 6 knots

Air temperature 6.0° C
Visibility: greater than 2.3 NM
Dewpoint 5.0° C
Present weather: Mist.

Last reported at 2017-Nov-22 01:50 UTC.
Time now 2017-Nov-22 03:28 UTC

Location: N 58°27' W 003°05'.
View on Google Maps.

See reports from other nearby stations

  
Tides and Currents Weather Stations Pressure Air Temp Water Temp Dewpoint Dewpoint Depression Visibility Wind Speed Wind Dir Waves Ship Positions
date/time (UTC)wind fromknots sea level pressurealtimeterstation pressurevisibilityair tempwater tempwave heightnotes
2017-Nov-22 02:50 250 6 3.2 6.0
2017-Nov-22 02:20 250 6 1.7 6.0 Mist.
2017-Nov-22 01:50 240 6 2.3 6.0 Mist.
2017-Nov-22 01:20 260 7 3.8 5.0
2017-Nov-22 00:50 270 8 3.2 5.0
2017-Nov-22 00:20 270 8 1.3 5.0 Light drizzle.
2017-Nov-21 23:50 270 7 5.4 6.0
2017-Nov-21 23:20 270 7 2.1 6.0 Mist.
2017-Nov-21 22:50 280 6 5.4 7.0
2017-Nov-21 22:20 290 6 5.4 7.0
2017-Nov-21 21:50 300 6 5.4 7.0 Light drizzle.
2017-Nov-21 21:20 300 6 5.4 7.0 Light rain.
2017-Nov-21 20:50 310 5 5.4 7.0 Drizzle.
2017-Nov-21 20:20 5.4 7.0 Light rain.
2017-Nov-21 19:50 170 2 5.4 8.0 Light rain.
2017-Nov-21 19:20 170 6 5.4 8.0 Light rain.
2017-Nov-21 18:50 150 5 3.2 9.0 Light rain.
2017-Nov-21 18:20 130 8 3.2 9.0 Light rain.
2017-Nov-21 17:50 090 20 3.2 8.0 Light rain.
2017-Nov-21 17:20 100 21 3.2 8.0 Light rain.
2017-Nov-21 16:50 100 21 2.7 8.0 Light rain.
2017-Nov-21 16:20 090 25 2.2 8.0 Rain.
2017-Nov-21 15:50 090 26 2.2 7.0 Rain.
2017-Nov-21 15:20 090 26 2.7 7.0 Rain.
2017-Nov-21 14:50 090 24 3.2 7.0 Rain.
2017-Nov-21 14:20 090 26 3.2 7.0 Rain.
2017-Nov-21 13:50 090 25 3.2 7.0 Light rain.
2017-Nov-21 13:20 090 25 3.2 7.0 Light rain.
2017-Nov-21 12:50 090 22 3.2 6.0 Light rain.
2017-Nov-21 12:20 090 21 3.2 6.0 Light rain.
2017-Nov-21 11:50 090 21 3.2 6.0 Light rain.
2017-Nov-21 11:20 090 20 2.7 6.0 Rain.
2017-Nov-21 10:50 100 20 3.2 6.0 Light rain.
2017-Nov-21 10:20 100 19 3.2 6.0 Light rain.
2017-Nov-21 09:50 100 19 4.3 6.0 Light rain.
2017-Nov-21 09:20 100 20 4.3 6.0 Light rain.
2017-Nov-21 08:50 090 18 4.3 6.0 Light rain.
2017-Nov-21 08:20 090 17 4.3 6.0 Light rain.
2017-Nov-21 07:50 080 17 5.4 6.0 Light rain.
2017-Nov-21 07:20 090 17 5.4 5.0 Light rain.
2017-Nov-21 06:50 080 17 5.4 5.0 Light rain.
2017-Nov-21 06:20 080 14 5.4 5.0 Light rain.
2017-Nov-21 05:50 080 14 5.4 5.0 Light rain.
2017-Nov-21 05:20 090 14 5.4 5.0 Drizzle.
2017-Nov-21 04:50 090 13 4.9 5.0 Light rain.
2017-Nov-21 04:20 090 13 3.2 5.0 Light rain.
2017-Nov-21 03:50 080 13 5.4 5.0 Light drizzle.
2017-Nov-21 03:20 090 12 5.4 5.0 Drizzle.
2017-Nov-21 02:50 090 12 5.4 5.0 Light rain.
2017-Nov-21 02:20 090 12 5.4 5.0 Light rain.
2017-Nov-21 01:50 090 12 5.4 5.0 Drizzle.
2017-Nov-21 01:20 090 11 5.4 5.0 Light rain.
2017-Nov-21 00:50 080 11 5.4 5.0 Light drizzle.
2017-Nov-21 00:20 090 9 5.4 5.0 Drizzle.
2017-Nov-20 23:50 080 12 5.4 5.0 Drizzle.
2017-Nov-20 23:20 080 11 5.4 5.0 Light rain.
2017-Nov-20 22:50 080 11 5.4 5.0 Drizzle.
2017-Nov-20 22:20 080 11 5.4 5.0 Drizzle.
2017-Nov-20 21:50 070 12 5.4 5.0 Light rain.
2017-Nov-20 21:20 070 12 5.4 5.0 Drizzle.
2017-Nov-20 20:50 070 11 5.4 5.0 Drizzle.
2017-Nov-20 20:20 080 12 5.4 5.0 Light rain.
2017-Nov-20 19:50 080 12 5.4 5.0 Light rain.
2017-Nov-20 19:20 070 12 5.4 5.0 Light rain.
2017-Nov-20 18:50 060 13 5.4 6.0 Light rain.
2017-Nov-20 18:20 070 12 5.4 6.0
2017-Nov-20 17:50 070 12 5.4 6.0
2017-Nov-20 17:20 080 12 5.4 6.0
2017-Nov-20 16:50 080 12 5.4 6.0
2017-Nov-20 16:20 080 13 5.4 6.0
2017-Nov-20 15:50 080 13 5.4 6.0
2017-Nov-20 15:20 090 13 5.4 6.0
2017-Nov-20 14:50 090 13 5.4 6.0
2017-Nov-20 14:20 070 13 5.4 6.0
2017-Nov-20 13:50 080 14 5.4 6.0
2017-Nov-20 13:20 070 14 5.4 6.0
2017-Nov-20 12:50 090 13 5.4 6.0
2017-Nov-20 12:20 080 13 5.4 6.0
2017-Nov-20 11:50 090 13 5.4 6.0
2017-Nov-20 11:20 090 14 5.4 6.0 Light rain.
2017-Nov-20 10:50 080 17 5.4 6.0
2017-Nov-20 10:20 090 15 5.4 5.0
2017-Nov-20 09:50 080 18 5.4 5.0
2017-Nov-20 09:20 090 18 5.4 5.0 Light rain.
2017-Nov-20 08:50 090 18 5.4 5.0 Light rain.
2017-Nov-20 08:20 080 17 5.4 5.0 Light rain.
2017-Nov-20 07:50 100 18 5.4 5.0 Light rain.
2017-Nov-20 07:20 090 15 5.4 5.0 Light rain.
2017-Nov-20 06:50 100 12 5.4 5.0 Light rain.
2017-Nov-20 06:20 110 13 5.4 5.0 Light rain.
2017-Nov-20 05:50 110 13 5.4 5.0 Light drizzle.
2017-Nov-20 05:20 120 12 5.4 5.0 Light drizzle.
2017-Nov-20 04:50 110 13 5.4 5.0 Light rain.
2017-Nov-20 04:20 120 8 5.4 5.0 Light rain.
2017-Nov-20 03:50 100 11 5.4 5.0 Light drizzle.
2017-Nov-20 03:20 110 13 5.4 5.0 Light rain.